Time,TemperatureF,DewpointF,PressureIn,WindDirection,WindDirectionDegrees,WindSpeedMPH,WindSpeedGustMPH,Humidity,HourlyPrecipIn,Conditions,Clouds,dailyrainin,SoftwareType,DateUTC
2013-01-14 00:00:00,25.3,20.5,29.92,WNW,292,2.2,2.2,82,0.00,,,0.04,WUHU21636XXSP,2013-01-14 05:00:00,
2013-01-14 00:01:00,25.3,20.5,29.92,WNW,292,3.3,3.3,81,0.00,,,0.00,WUHU21636XXSP,2013-01-14 05:01:00,
2013-01-14 00:03:00,25.3,20.5,29.92,WNW,292,3.3,3.3,81,0.00,,,0.00,WUHU21636XXSP,2013-01-14 05:03:00,
2013-01-14 00:04:00,25.3,20.5,29.92,WNW,292,3.3,3.3,81,0.00,,,0.00,WUHU21636XXSP,2013-01-14 05:04:00,
2013-01-14 00:09:00,25.2,20.1,29.92,WNW,292,3.5,9.8,81,0.00,,,0.00,WUHU21636XXSP,2013-01-14 05:09:00,
2013-01-14 00:14:00,25.2,20.1,29.93,WNW,292,0.0,9.8,81,0.00,,,0.00,WUHU21636XXSP,2013-01-14 05:14:00,
2013-01-14 00:19:00,25.0,19.9,29.93,WNW,292,6.2,11.6,81,0.00,,,0.00,WUHU21636XXSP,2013-01-14 05:19:00,
2013-01-14 00:24:00,25.0,19.9,29.93,WNW,292,8.9,11.6,81,0.00,,,0.00,WUHU21636XXSP,2013-01-14 05:24:00,
2013-01-14 00:29:00,24.8,19.8,29.93,WNW,292,3.3,16.3,81,0.00,,,0.00,WUHU21636XXSP,2013-01-14 05:29:00,
2013-01-14 00:34:00,24.6,19.6,29.94,WNW,292,2.0,16.3,81,0.00,,,0.00,WUHU21636XXSP,2013-01-14 05:34:00,
2013-01-14 00:39:00,24.4,19.4,29.94,WNW,292,4.2,10.2,81,0.00,,,0.00,WUHU21636XXSP,2013-01-14 05:39:00,
2013-01-14 00:44:00,24.6,19.6,29.94,WNW,292,0.0,10.2,81,0.00,,,0.00,WUHU21636XXSP,2013-01-14 05:44:00,
2013-01-14 00:49:00,24.4,19.4,29.94,WNW,292,6.4,11.1,81,0.00,,,0.00,WUHU21636XXSP,2013-01-14 05:49:00,
2013-01-14 00:54:00,24.4,19.8,29.94,WNW,292,3.5,12.0,82,0.00,,,0.00,WUHU21636XXSP,2013-01-14 05:54:00,
2013-01-14 00:59:00,24.4,19.4,29.95,WNW,292,4.2,14.7,81,0.00,,,0.00,WUHU21636XXSP,2013-01-14 05:59:00,
2013-01-14 01:04:00,24.3,19.6,29.95,WNW,292,4.2,14.7,82,0.00,,,0.00,WUHU21636XXSP,2013-01-14 06:04:00,
2013-01-14 01:09:00,24.1,19.4,29.95,WNW,292,2.6,6.7,82,0.00,,,0.00,WUHU21636XXSP,2013-01-14 06:09:00,
2013-01-14 01:14:00,24.1,19.4,29.95,WNW,292,2.9,4.2,82,0.00,,,0.00,WUHU21636XXSP,2013-01-14 06:14:00,
2013-01-14 01:19:00,23.9,19.2,29.95,WNW,292,5.8,13.1,82,0.00,,,0.00,WUHU21636XXSP,2013-01-14 06:19:00,
2013-01-14 01:24:00,23.7,19.2,29.95,WNW,292,3.5,16.3,83,0.00,,,0.00,WUHU21636XXSP,2013-01-14 06:24:00,
2013-01-14 01:29:00,23.7,19.6,29.96,WNW,292,2.4,16.3,84,0.00,,,0.00,WUHU21636XXSP,2013-01-14 06:29:00,
2013-01-14 01:34:00,23.5,19.6,29.96,WNW,292,4.6,9.1,85,0.00,,,0.00,WUHU21636XXSP,2013-01-14 06:34:00,
2013-01-14 01:39:00,23.4,19.8,29.96,WNW,292,4.0,4.6,86,0.00,,,0.00,WUHU21636XXSP,2013-01-14 06:39:00,
2013-01-14 01:44:00,23.2,19.6,29.96,WNW,292,3.3,8.0,86,0.00,,,0.00,WUHU21636XXSP,2013-01-14 06:44:00,
2013-01-14 01:49:00,23.2,19.6,29.96,WNW,292,4.6,8.0,86,0.00,,,0.00,WUHU21636XXSP,2013-01-14 06:49:00,
2013-01-14 01:54:00,23.2,19.6,29.96,WNW,292,0.6,4.6,86,0.00,,,0.00,WUHU21636XXSP,2013-01-14 06:54:00,
2013-01-14 01:59:00,23.2,19.6,29.96,WNW,292,3.3,6.9,86,0.00,,,0.00,WUHU21636XXSP,2013-01-14 06:59:00,
2013-01-14 02:04:00,23.4,19.8,29.97,WNW,292,2.6,10.5,86,0.00,,,0.00,WUHU21636XXSP,2013-01-14 07:04:00,
2013-01-14 02:09:00,23.4,19.8,29.97,WNW,292,1.3,10.5,86,0.00,,,0.00,WUHU21636XXSP,2013-01-14 07:09:00,
2013-01-14 02:14:00,23.2,19.2,29.97,WNW,292,2.6,6.9,85,0.00,,,0.00,WUHU21636XXSP,2013-01-14 07:14:00,
2013-01-14 02:19:00,23.2,19.2,29.98,WNW,292,1.1,6.9,85,0.00,,,0.00,WUHU21636XXSP,2013-01-14 07:19:00,
2013-01-14 02:24:00,23.2,19.2,29.98,WNW,292,2.6,9.3,85,0.00,,,0.00,WUHU21636XXSP,2013-01-14 07:24:00,
2013-01-14 02:29:00,23.2,19.2,29.98,WNW,292,5.8,11.4,85,0.00,,,0.00,WUHU21636XXSP,2013-01-14 07:29:00,
2013-01-14 02:34:00,22.8,19.2,29.99,WNW,292,0.0,11.4,86,0.00,,,0.00,WUHU21636XXSP,2013-01-14 07:34:00,
2013-01-14 02:39:00,22.6,19.2,29.99,WNW,292,12.0,15.8,87,0.00,,,0.00,WUHU21636XXSP,2013-01-14 07:39:00,
2013-01-14 02:44:00,22.6,19.0,30.00,WNW,292,6.0,17.2,86,0.00,,,0.00,WUHU21636XXSP,2013-01-14 07:44:00,
2013-01-14 02:49:00,22.3,18.7,30.01,WNW,292,7.6,17.2,86,0.00,,,0.00,WUHU21636XXSP,2013-01-14 07:49:00,
2013-01-14 02:54:00,22.3,18.3,30.01,WNW,292,7.3,22.8,85,0.00,,,0.00,WUHU21636XXSP,2013-01-14 07:54:00,
2013-01-14 02:59:00,22.3,18.1,30.01,WNW,292,6.0,22.8,84,0.00,,,0.00,WUHU21636XXSP,2013-01-14 07:59:00,
2013-01-14 03:04:00,22.1,17.6,30.02,WNW,292,9.3,12.9,83,0.00,,,0.00,WUHU21636XXSP,2013-01-14 08:04:00,
2013-01-14 03:09:00,22.1,17.1,30.02,WNW,292,8.5,18.1,81,0.00,,,0.00,WUHU21636XXSP,2013-01-14 08:09:00,
2013-01-14 03:14:00,22.1,17.1,30.03,WNW,292,10.2,18.1,81,0.00,,,0.00,WUHU21636XXSP,2013-01-14 08:14:00,
2013-01-14 03:19:00,21.9,17.2,30.03,WNW,292,8.7,16.3,82,0.00,,,0.00,WUHU21636XXSP,2013-01-14 08:19:00,
2013-01-14 03:24:00,21.7,16.7,30.04,WNW,292,8.2,16.3,81,0.00,,,0.00,WUHU21636XXSP,2013-01-14 08:24:00,
2013-01-14 03:29:00,21.7,16.2,30.03,WNW,292,14.5,20.3,79,0.00,,,0.00,WUHU21636XXSP,2013-01-14 08:29:00,
2013-01-14 03:34:00,21.7,16.2,30.04,WNW,292,11.1,24.6,79,0.00,,,0.00,WUHU21636XXSP,2013-01-14 08:34:00,
2013-01-14 03:39:00,21.7,16.5,30.04,WNW,292,11.4,24.6,80,0.00,,,0.00,WUHU21636XXSP,2013-01-14 08:39:00,
2013-01-14 03:44:00,21.6,16.3,30.05,WNW,292,8.2,19.9,80,0.00,,,0.00,WUHU21636XXSP,2013-01-14 08:44:00,
2013-01-14 03:49:00,21.6,16.3,30.05,WNW,292,10.0,17.8,80,0.00,,,0.00,WUHU21636XXSP,2013-01-14 08:49:00,
2013-01-14 03:54:00,21.4,16.2,30.05,WNW,292,12.0,18.3,80,0.00,,,0.00,WUHU21636XXSP,2013-01-14 08:54:00,
2013-01-14 03:59:00,21.0,16.0,30.05,WNW,292,6.7,20.1,81,0.00,,,0.00,WUHU21636XXSP,2013-01-14 08:59:00,
2013-01-14 04:04:00,21.0,16.0,30.06,WNW,292,8.2,20.1,81,0.00,,,0.00,WUHU21636XXSP,2013-01-14 09:04:00,
2013-01-14 04:09:00,21.0,16.0,30.06,WNW,292,6.7,15.2,81,0.00,,,0.00,WUHU21636XXSP,2013-01-14 09:09:00,
2013-01-14 04:14:00,20.8,16.2,30.06,WNW,292,6.0,15.2,82,0.00,,,0.00,WUHU21636XXSP,2013-01-14 09:14:00,
2013-01-14 04:19:00,20.8,16.3,30.07,WNW,292,4.0,12.9,83,0.00,,,0.00,WUHU21636XXSP,2013-01-14 09:19:00,
2013-01-14 04:24:00,20.8,16.2,30.07,WNW,292,5.8,10.9,82,0.00,,,0.00,WUHU21636XXSP,2013-01-14 09:24:00,
2013-01-14 04:29:00,20.8,16.2,30.07,WNW,292,4.2,13.1,82,0.00,,,0.00,WUHU21636XXSP,2013-01-14 09:29:00,
2013-01-14 04:34:00,20.8,16.2,30.08,WNW,292,8.9,13.1,82,0.00,,,0.00,WUHU21636XXSP,2013-01-14 09:34:00,
2013-01-14 04:39:00,20.7,16.2,30.07,WNW,292,5.3,13.1,83,0.00,,,0.00,WUHU21636XXSP,2013-01-14 09:39:00,
2013-01-14 04:44:00,20.3,15.8,30.07,WNW,292,8.7,13.4,83,0.00,,,0.00,WUHU21636XXSP,2013-01-14 09:44:00,
2013-01-14 04:49:00,20.3,16.2,30.07,WNW,292,6.0,13.4,84,0.00,,,0.00,WUHU21636XXSP,2013-01-14 09:49:00,
2013-01-14 04:54:00,20.1,16.0,30.08,WNW,292,7.3,12.3,84,0.00,,,0.00,WUHU21636XXSP,2013-01-14 09:54:00,
2013-01-14 04:59:00,20.1,16.0,30.08,WNW,292,5.5,12.3,84,0.00,,,0.00,WUHU21636XXSP,2013-01-14 09:59:00,
2013-01-14 05:04:00,20.1,15.6,30.08,WNW,292,7.3,12.9,83,0.00,,,0.00,WUHU21636XXSP,2013-01-14 10:04:00,
2013-01-14 05:09:00,20.1,16.0,30.08,WNW,292,6.9,12.9,84,0.00,,,0.00,WUHU21636XXSP,2013-01-14 10:09:00,
2013-01-14 05:14:00,19.9,15.8,30.09,WNW,292,3.1,12.7,84,0.00,,,0.00,WUHU21636XXSP,2013-01-14 10:14:00,
2013-01-14 05:19:00,19.9,15.4,30.09,WNW,292,2.2,12.7,83,0.00,,,0.00,WUHU21636XXSP,2013-01-14 10:19:00,
2013-01-14 05:24:00,20.1,15.4,30.09,WNW,292,4.6,11.8,82,0.00,,,0.00,WUHU21636XXSP,2013-01-14 10:24:00,
2013-01-14 05:29:00,20.1,15.4,30.09,WNW,292,4.9,11.8,82,0.00,,,0.00,WUHU21636XXSP,2013-01-14 10:29:00,
2013-01-14 05:34:00,20.1,15.1,30.09,WNW,292,11.1,11.4,81,0.00,,,0.00,WUHU21636XXSP,2013-01-14 10:34:00,
2013-01-14 05:39:00,20.1,15.1,30.10,WNW,292,4.6,11.4,81,0.00,,,0.00,WUHU21636XXSP,2013-01-14 10:39:00,
2013-01-14 05:44:00,20.1,14.9,30.10,WNW,292,3.8,12.3,80,0.00,,,0.00,WUHU21636XXSP,2013-01-14 10:44:00,
2013-01-14 05:49:00,20.1,14.9,30.10,WNW,292,5.5,12.3,80,0.00,,,0.00,WUHU21636XXSP,2013-01-14 10:49:00,
2013-01-14 05:54:00,20.1,14.5,30.10,WNW,292,12.3,17.2,79,0.00,,,0.00,WUHU21636XXSP,2013-01-14 10:54:00,
2013-01-14 05:59:00,20.1,14.5,30.11,WNW,292,6.9,17.2,79,0.00,,,0.00,WUHU21636XXSP,2013-01-14 10:59:00,
2013-01-14 06:04:00,20.1,14.2,30.11,WNW,292,6.4,14.3,78,0.00,,,0.00,WUHU21636XXSP,2013-01-14 11:04:00,
2013-01-14 06:09:00,20.1,14.5,30.11,WNW,292,3.3,10.7,79,0.00,,,0.00,WUHU21636XXSP,2013-01-14 11:09:00,
2013-01-14 06:14:00,20.1,14.2,30.12,WNW,292,1.7,10.7,78,0.00,,,0.00,WUHU21636XXSP,2013-01-14 11:14:00,
2013-01-14 06:19:00,20.1,13.8,30.13,WNW,292,6.4,15.4,77,0.00,,,0.00,WUHU21636XXSP,2013-01-14 11:19:00,
2013-01-14 06:24:00,20.1,13.8,30.13,WNW,292,5.1,15.4,77,0.00,,,0.00,WUHU21636XXSP,2013-01-14 11:24:00,
2013-01-14 06:29:00,19.9,13.5,30.14,WNW,292,6.7,15.4,76,0.00,,,0.00,WUHU21636XXSP,2013-01-14 11:29:00,
2013-01-14 06:34:00,19.9,13.5,30.14,WNW,292,12.7,18.1,76,0.00,,,0.00,WUHU21636XXSP,2013-01-14 11:34:00,
2013-01-14 06:39:00,19.9,13.5,30.14,WNW,292,6.4,18.1,76,0.00,,,0.00,WUHU21636XXSP,2013-01-14 11:39:00,
2013-01-14 06:44:00,19.8,13.3,30.14,WNW,292,2.0,14.3,76,0.00,,,0.00,WUHU21636XXSP,2013-01-14 11:44:00,
2013-01-14 06:49:00,19.8,12.9,30.15,WNW,292,2.0,13.8,75,0.00,,,0.00,WUHU21636XXSP,2013-01-14 11:49:00,
2013-01-14 06:54:00,19.8,13.3,30.16,WNW,292,3.1,8.2,76,0.00,,,0.00,WUHU21636XXSP,2013-01-14 11:54:00,
2013-01-14 06:59:00,19.8,13.3,30.16,WNW,292,5.8,11.8,76,0.00,,,0.00,WUHU21636XXSP,2013-01-14 11:59:00,
2013-01-14 07:04:00,19.8,13.5,30.16,WNW,292,1.1,11.8,77,0.00,,,0.00,WUHU21636XXSP,2013-01-14 12:04:00,
2013-01-14 07:09:00,19.8,13.5,30.17,WNW,292,0.0,7.8,78,0.00,,,0.00,WUHU21636XXSP,2013-01-14 12:09:00,
2013-01-14 07:14:00,19.8,13.8,30.17,WNW,292,2.4,7.8,78,0.00,,,0.00,WUHU21636XXSP,2013-01-14 12:14:00,
2013-01-14 07:19:00,19.8,13.8,30.17,WNW,292,4.2,7.8,78,0.00,,,0.00,WUHU21636XXSP,2013-01-14 12:19:00,
2013-01-14 07:24:00,19.8,13.8,30.18,WNW,292,2.4,8.2,78,0.00,,,0.00,WUHU21636XXSP,2013-01-14 12:24:00,
2013-01-14 07:29:00,19.8,13.8,30.18,WNW,292,1.7,8.2,79,0.00,,,0.00,WUHU21636XXSP,2013-01-14 12:29:00,
2013-01-14 07:34:00,19.8,13.8,30.18,WNW,292,1.7,9.8,78,0.00,,,0.00,WUHU21636XXSP,2013-01-14 12:34:00,
2013-01-14 07:39:00,19.8,13.8,30.18,WNW,292,3.1,9.8,78,0.00,,,0.00,WUHU21636XXSP,2013-01-14 12:39:00,
2013-01-14 07:44:00,19.8,13.8,30.18,WNW,292,5.5,8.0,78,0.00,,,0.00,WUHU21636XXSP,2013-01-14 12:44:00,
2013-01-14 07:49:00,19.8,13.5,30.19,WNW,292,3.3,8.0,77,0.00,,,0.00,WUHU21636XXSP,2013-01-14 12:49:00,
2013-01-14 07:54:00,19.8,13.8,30.19,WNW,292,4.0,5.5,78,0.00,,,0.00,WUHU21636XXSP,2013-01-14 12:54:00,
2013-01-14 07:59:00,19.8,13.8,30.20,WNW,292,1.5,4.0,78,0.00,,,0.00,WUHU21636XXSP,2013-01-14 12:59:00,
2013-01-14 08:04:00,19.8,13.8,30.20,WNW,292,2.2,4.0,77,0.00,,,0.00,WUHU21636XXSP,2013-01-14 13:04:00,
2013-01-14 08:09:00,19.8,13.8,30.20,WNW,292,1.7,2.9,77,0.00,,,0.00,WUHU21636XXSP,2013-01-14 13:09:00,
2013-01-14 08:14:00,19.8,13.8,30.21,WNW,292,0.0,2.6,77,0.00,,,0.00,WUHU21636XXSP,2013-01-14 13:14:00,
2013-01-14 08:19:00,19.8,13.8,30.21,WNW,292,0.0,2.6,77,0.00,,,0.00,WUHU21636XXSP,2013-01-14 13:19:00,
2013-01-14 08:24:00,19.8,13.8,30.22,WNW,292,1.5,1.7,77,0.00,,,0.00,WUHU21636XXSP,2013-01-14 13:24:00,
2013-01-14 08:29:00,19.9,13.6,30.22,WNW,292,0.0,1.5,78,0.00,,,0.00,WUHU21636XXSP,2013-01-14 13:29:00,
2013-01-14 08:34:00,19.9,13.6,30.23,WNW,292,2.6,2.6,77,0.00,,,0.00,WUHU21636XXSP,2013-01-14 13:34:00,
2013-01-14 08:39:00,19.9,13.6,30.23,WNW,292,0.0,2.6,77,0.00,,,0.00,WUHU21636XXSP,2013-01-14 13:39:00,
2013-01-14 08:44:00,20.1,13.8,30.24,WNW,292,3.3,10.7,77,0.00,,,0.00,WUHU21636XXSP,2013-01-14 13:44:00,
2013-01-14 08:49:00,20.1,13.8,30.24,WNW,292,0.0,10.7,76,0.00,,,0.00,WUHU21636XXSP,2013-01-14 13:49:00,
2013-01-14 08:54:00,20.1,13.8,30.25,WNW,292,0.0,2.9,77,0.00,,,0.00,WUHU21636XXSP,2013-01-14 13:54:00,
2013-01-14 08:59:00,20.1,13.8,30.25,WNW,292,1.7,8.0,77,0.00,,,0.00,WUHU21636XXSP,2013-01-14 13:59:00,
2013-01-14 09:04:00,20.3,13.8,30.25,WNW,292,0.0,8.0,76,0.00,,,0.00,WUHU21636XXSP,2013-01-14 14:04:00,
2013-01-14 09:09:00,20.3,13.8,30.25,WNW,292,0.0,2.4,76,0.00,,,0.00,WUHU21636XXSP,2013-01-14 14:09:00,
2013-01-14 09:14:00,20.3,14.0,30.25,WNW,292,2.0,8.0,77,0.00,,,0.00,WUHU21636XXSP,2013-01-14 14:14:00,
2013-01-14 09:19:00,20.5,14.5,30.25,WNW,292,3.1,8.0,78,0.00,,,0.00,WUHU21636XXSP,2013-01-14 14:19:00,
2013-01-14 09:24:00,20.3,14.7,30.26,WNW,292,4.4,4.4,79,0.00,,,0.00,WUHU21636XXSP,2013-01-14 14:24:00,
2013-01-14 09:29:00,20.3,14.7,30.26,WNW,292,0.0,4.4,79,0.00,,,0.00,WUHU21636XXSP,2013-01-14 14:29:00,
2013-01-14 09:34:00,20.3,14.7,30.27,WNW,292,0.0,4.4,79,0.00,,,0.00,WUHU21636XXSP,2013-01-14 14:34:00,
2013-01-14 09:39:00,20.5,14.9,30.26,WNW,292,0.0,10.9,79,0.00,,,0.00,WUHU21636XXSP,2013-01-14 14:39:00,
2013-01-14 09:44:00,20.3,14.7,30.27,WNW,292,1.7,10.9,79,0.00,,,0.00,WUHU21636XXSP,2013-01-14 14:44:00,
2013-01-14 09:49:00,20.1,14.9,30.27,WNW,292,1.7,4.4,80,0.00,,,0.00,WUHU21636XXSP,2013-01-14 14:49:00,
2013-01-14 09:54:00,20.1,14.5,30.27,WNW,292,3.3,8.0,79,0.00,,,0.00,WUHU21636XXSP,2013-01-14 14:54:00,
2013-01-14 09:59:00,20.1,14.5,30.27,WNW,292,0.4,14.0,79,0.00,,,0.00,WUHU21636XXSP,2013-01-14 14:59:00,
2013-01-14 10:04:00,20.1,14.5,30.28,WNW,292,2.0,14.0,79,0.00,,,0.00,WUHU21636XXSP,2013-01-14 15:04:00,
2013-01-14 10:09:00,20.1,14.2,30.28,WNW,292,5.5,6.7,78,0.00,,,0.00,WUHU21636XXSP,2013-01-14 15:09:00,
2013-01-14 10:14:00,20.1,14.2,30.28,WNW,292,1.1,11.6,79,0.00,,,0.00,WUHU21636XXSP,2013-01-14 15:14:00,
2013-01-14 10:19:00,20.1,14.2,30.28,WNW,292,0.0,11.6,78,0.00,,,0.00,WUHU21636XXSP,2013-01-14 15:19:00,
2013-01-14 10:24:00,20.1,14.2,30.28,WNW,292,3.3,3.3,77,0.00,,,0.00,WUHU21636XXSP,2013-01-14 15:24:00,
2013-01-14 10:29:00,20.3,13.8,30.28,WNW,292,7.3,10.9,76,0.00,,,0.00,WUHU21636XXSP,2013-01-14 15:29:00,
2013-01-14 10:34:00,20.5,14.0,30.28,WNW,292,0.0,12.3,76,0.00,,,0.00,WUHU21636XXSP,2013-01-14 15:34:00,
2013-01-14 10:39:00,20.5,14.0,30.28,WNW,292,2.4,12.3,76,0.00,,,0.00,WUHU21636XXSP,2013-01-14 15:39:00,
2013-01-14 10:44:00,20.3,13.8,30.29,WNW,292,0.6,11.4,76,0.00,,,0.00,WUHU21636XXSP,2013-01-14 15:44:00,
2013-01-14 10:49:00,20.5,14.0,30.29,WNW,292,2.0,11.4,76,0.00,,,0.00,WUHU21636XXSP,2013-01-14 15:49:00,
2013-01-14 10:54:00,20.5,14.0,30.29,WNW,292,7.1,12.0,76,0.00,,,0.00,WUHU21636XXSP,2013-01-14 15:54:00,
2013-01-14 10:59:00,20.5,13.6,30.29,WNW,292,0.4,12.5,75,0.00,,,0.00,WUHU21636XXSP,2013-01-14 15:59:00,
2013-01-14 11:04:00,20.8,14.4,30.29,WNW,292,5.1,12.5,76,0.00,,,0.00,WUHU21636XXSP,2013-01-14 16:04:00,
2013-01-14 11:09:00,20.8,14.4,30.29,WNW,292,2.4,11.4,75,0.00,,,0.00,WUHU21636XXSP,2013-01-14 16:09:00,
2013-01-14 11:14:00,20.8,13.6,30.29,WNW,292,4.9,9.3,74,0.00,,,0.00,WUHU21636XXSP,2013-01-14 16:14:00,
2013-01-14 11:19:00,20.8,14.0,30.29,WNW,292,0.0,4.9,74,0.00,,,0.00,WUHU21636XXSP,2013-01-14 16:19:00,
2013-01-14 11:24:00,20.8,14.0,30.29,WNW,292,2.6,4.9,73,0.00,,,0.00,WUHU21636XXSP,2013-01-14 16:24:00,
2013-01-14 11:29:00,20.8,13.5,30.29,WNW,292,4.9,4.9,73,0.00,,,0.00,WUHU21636XXSP,2013-01-14 16:29:00,
2013-01-14 11:34:00,20.8,14.0,30.29,WNW,292,4.9,4.9,75,0.00,,,0.00,WUHU21636XXSP,2013-01-14 16:34:00,
2013-01-14 11:39:00,20.8,14.0,30.29,WNW,292,3.3,12.0,76,0.00,,,0.00,WUHU21636XXSP,2013-01-14 16:39:00,
2013-01-14 11:44:00,20.7,14.4,30.29,WNW,292,6.2,12.0,77,0.00,,,0.00,WUHU21636XXSP,2013-01-14 16:44:00,
2013-01-14 11:49:00,20.8,14.4,30.29,WNW,292,2.9,9.3,76,0.00,,,0.00,WUHU21636XXSP,2013-01-14 16:49:00,
2013-01-14 11:54:00,20.8,14.4,30.29,WNW,292,3.1,10.0,76,0.00,,,0.00,WUHU21636XXSP,2013-01-14 16:54:00,
2013-01-14 11:59:00,21.0,14.2,30.29,WNW,292,3.3,10.0,75,0.00,,,0.00,WUHU21636XXSP,2013-01-14 16:59:00,
2013-01-14 12:04:00,20.8,13.6,30.29,WNW,292,2.2,4.6,74,0.00,,,0.00,WUHU21636XXSP,2013-01-14 17:04:00,
2013-01-14 12:09:00,21.2,14.0,30.28,WNW,292,0.0,3.3,74,0.00,,,0.00,WUHU21636XXSP,2013-01-14 17:09:00,
2013-01-14 12:14:00,21.4,14.2,30.28,WNW,292,1.5,5.1,74,0.00,,,0.00,WUHU21636XXSP,2013-01-14 17:14:00,
2013-01-14 12:19:00,21.4,14.0,30.28,WNW,292,3.8,8.0,73,0.00,,,0.00,WUHU21636XXSP,2013-01-14 17:19:00,
2013-01-14 12:24:00,21.4,14.0,30.27,WNW,292,3.5,10.5,73,0.00,,,0.00,WUHU21636XXSP,2013-01-14 17:24:00,
2013-01-14 12:29:00,21.4,14.0,30.27,WNW,292,1.7,12.0,74,0.00,,,0.00,WUHU21636XXSP,2013-01-14 17:29:00,
2013-01-14 12:34:00,21.6,14.2,30.27,WNW,292,5.1,12.0,73,0.00,,,0.00,WUHU21636XXSP,2013-01-14 17:34:00,
2013-01-14 12:39:00,21.4,14.0,30.26,WNW,292,4.0,16.1,73,0.00,,,0.00,WUHU21636XXSP,2013-01-14 17:39:00,
2013-01-14 12:44:00,21.6,14.4,30.27,WNW,292,3.3,16.1,74,0.00,,,0.00,WUHU21636XXSP,2013-01-14 17:44:00,
2013-01-14 12:49:00,21.7,14.5,30.27,WNW,292,3.3,4.0,73,0.00,,,0.00,WUHU21636XXSP,2013-01-14 17:49:00,
2013-01-14 12:54:00,21.7,13.6,30.26,WNW,292,11.1,16.5,71,0.00,,,0.00,WUHU21636XXSP,2013-01-14 17:54:00,
2013-01-14 12:59:00,21.7,14.0,30.26,WNW,292,5.5,16.7,72,0.00,,,0.00,WUHU21636XXSP,2013-01-14 17:59:00,
2013-01-14 13:04:00,21.9,13.6,30.26,WNW,292,4.0,16.7,70,0.00,,,0.00,WUHU21636XXSP,2013-01-14 18:04:00,
2013-01-14 13:09:00,21.9,13.6,30.26,WNW,292,4.6,14.0,70,0.00,,,0.00,WUHU21636XXSP,2013-01-14 18:09:00,
2013-01-14 13:14:00,22.1,13.5,30.26,WNW,292,4.6,14.0,69,0.00,,,0.00,WUHU21636XXSP,2013-01-14 18:14:00,
2013-01-14 13:19:00,22.1,13.8,30.26,WNW,292,8.2,9.1,70,0.00,,,0.00,WUHU21636XXSP,2013-01-14 18:19:00,
2013-01-14 13:24:00,21.9,13.6,30.26,WNW,292,4.0,15.2,71,0.00,,,0.00,WUHU21636XXSP,2013-01-14 18:24:00,
2013-01-14 13:29:00,21.9,13.6,30.26,WNW,292,1.3,15.2,70,0.00,,,0.00,WUHU21636XXSP,2013-01-14 18:29:00,
2013-01-14 13:34:00,21.9,14.2,30.26,WNW,292,8.7,14.0,72,0.00,,,0.00,WUHU21636XXSP,2013-01-14 18:34:00,
2013-01-14 13:39:00,22.1,14.4,30.27,WNW,292,2.2,15.4,73,0.00,,,0.00,WUHU21636XXSP,2013-01-14 18:39:00,
2013-01-14 13:44:00,21.9,14.7,30.27,WNW,292,1.7,15.4,74,0.00,,,0.00,WUHU21636XXSP,2013-01-14 18:44:00,
2013-01-14 13:49:00,21.7,14.9,30.27,WNW,292,2.4,13.8,75,0.00,,,0.00,WUHU21636XXSP,2013-01-14 18:49:00,
2013-01-14 13:54:00,22.3,14.9,30.27,WNW,292,5.5,10.0,73,0.00,,,0.00,WUHU21636XXSP,2013-01-14 18:54:00,
2013-01-14 13:59:00,22.6,14.9,30.27,WNW,292,3.5,12.7,72,0.00,,,0.00,WUHU21636XXSP,2013-01-14 18:59:00,
2013-01-14 14:04:00,22.6,14.9,30.27,WNW,292,1.7,12.7,72,0.00,,,0.00,WUHU21636XXSP,2013-01-14 19:04:00,
2013-01-14 14:09:00,22.6,14.9,30.27,WNW,292,1.1,8.0,72,0.00,,,0.00,WUHU21636XXSP,2013-01-14 19:09:00,
2013-01-14 14:14:00,22.6,14.9,30.27,WNW,292,0.0,1.7,71,0.00,,,0.00,WUHU21636XXSP,2013-01-14 19:14:00,
2013-01-14 14:19:00,22.6,14.0,30.27,WNW,292,0.0,11.6,70,0.00,,,0.00,WUHU21636XXSP,2013-01-14 19:19:00,
2013-01-14 14:24:00,22.8,14.7,30.27,WNW,292,0.0,11.6,70,0.00,,,0.00,WUHU21636XXSP,2013-01-14 19:24:00,
2013-01-14 14:29:00,23.4,15.3,30.27,WNW,292,3.1,3.1,71,0.00,,,0.00,WUHU21636XXSP,2013-01-14 19:29:00,
2013-01-14 14:34:00,23.7,14.9,30.27,WNW,292,1.7,3.1,70,0.00,,,0.00,WUHU21636XXSP,2013-01-14 19:34:00,
2013-01-14 14:39:00,23.4,14.5,30.28,WNW,292,8.0,13.4,69,0.00,,,0.00,WUHU21636XXSP,2013-01-14 19:39:00,
2013-01-14 14:44:00,23.2,14.4,30.28,WNW,292,0.8,19.6,69,0.00,,,0.00,WUHU21636XXSP,2013-01-14 19:44:00,
2013-01-14 14:49:00,23.2,14.4,30.28,WNW,292,4.2,19.6,69,0.00,,,0.00,WUHU21636XXSP,2013-01-14 19:49:00,
2013-01-14 14:54:00,23.0,14.4,30.28,WNW,292,3.8,5.3,69,0.00,,,0.00,WUHU21636XXSP,2013-01-14 19:54:00,
2013-01-14 14:59:00,22.8,14.5,30.28,WNW,292,3.8,8.0,70,0.00,,,0.00,WUHU21636XXSP,2013-01-14 19:59:00,
2013-01-14 15:04:00,23.2,14.7,30.28,WNW,292,2.2,10.5,70,0.00,,,0.00,WUHU21636XXSP,2013-01-14 20:04:00,
2013-01-14 15:09:00,23.2,13.6,30.28,WNW,292,4.9,11.4,67,0.00,,,0.00,WUHU21636XXSP,2013-01-14 20:09:00,
2013-01-14 15:14:00,23.7,13.8,30.28,WNW,292,3.5,11.4,66,0.00,,,0.00,WUHU21636XXSP,2013-01-14 20:14:00,
2013-01-14 15:19:00,23.7,13.5,30.28,WNW,292,3.1,10.0,65,0.00,,,0.00,WUHU21636XXSP,2013-01-14 20:19:00,
2013-01-14 15:24:00,23.4,13.1,30.28,WNW,292,5.1,10.2,65,0.00,,,0.00,WUHU21636XXSP,2013-01-14 20:24:00,
2013-01-14 15:29:00,23.9,13.6,30.27,WNW,292,4.2,11.1,65,0.00,,,0.00,WUHU21636XXSP,2013-01-14 20:29:00,
2013-01-14 15:34:00,24.4,13.8,30.27,WNW,292,3.3,11.1,64,0.00,,,0.00,WUHU21636XXSP,2013-01-14 20:34:00,
2013-01-14 15:39:00,25.3,14.7,30.27,WNW,292,0.6,11.1,64,0.00,,,0.00,WUHU21636XXSP,2013-01-14 20:39:00,
2013-01-14 15:44:00,24.1,12.4,30.27,WNW,292,4.6,11.4,61,0.00,,,0.00,WUHU21636XXSP,2013-01-14 20:44:00,
2013-01-14 15:49:00,23.4,12.0,30.28,WNW,292,0.2,29.0,62,0.00,,,0.00,WUHU21636XXSP,2013-01-14 20:49:00,
2013-01-14 15:54:00,23.2,11.8,30.28,WNW,292,1.1,29.0,62,0.00,,,0.00,WUHU21636XXSP,2013-01-14 20:54:00,
2013-01-14 15:59:00,22.6,11.8,30.29,WNW,292,1.5,15.8,63,0.00,,,0.00,WUHU21636XXSP,2013-01-14 20:59:00,
2013-01-14 16:04:00,22.6,11.8,30.29,WNW,292,1.3,15.8,63,0.00,,,0.00,WUHU21636XXSP,2013-01-14 21:04:00,
2013-01-14 16:09:00,22.8,12.4,30.29,WNW,292,5.1,7.1,64,0.00,,,0.00,WUHU21636XXSP,2013-01-14 21:09:00,
2013-01-14 16:14:00,22.6,12.2,30.29,WNW,292,2.4,7.1,64,0.00,,,0.00,WUHU21636XXSP,2013-01-14 21:14:00,
2013-01-14 16:19:00,22.8,12.4,30.29,WNW,292,0.0,6.9,64,0.00,,,0.00,WUHU21636XXSP,2013-01-14 21:19:00,
2013-01-14 16:24:00,22.8,12.4,30.29,WNW,292,1.7,4.0,63,0.00,,,0.00,WUHU21636XXSP,2013-01-14 21:24:00,
2013-01-14 16:29:00,23.2,12.6,30.29,WNW,292,0.0,1.7,64,0.00,,,0.00,WUHU21636XXSP,2013-01-14 21:29:00,
2013-01-14 16:34:00,23.4,12.7,30.29,WNW,292,0.8,0.8,63,0.00,,,0.00,WUHU21636XXSP,2013-01-14 21:34:00,
2013-01-14 16:39:00,23.2,12.2,30.30,WNW,292,0.0,0.8,63,0.00,,,0.00,WUHU21636XXSP,2013-01-14 21:39:00,
2013-01-14 16:44:00,23.4,12.4,30.30,WNW,292,3.3,3.3,63,0.00,,,0.00,WUHU21636XXSP,2013-01-14 21:44:00,
2013-01-14 16:49:00,23.4,12.4,30.30,WNW,292,0.0,3.3,64,0.00,,,0.00,WUHU21636XXSP,2013-01-14 21:49:00,
2013-01-14 16:54:00,23.4,12.4,30.30,WNW,292,0.0,3.3,64,0.00,,,0.00,WUHU21636XXSP,2013-01-14 21:54:00,
2013-01-14 16:59:00,23.2,12.6,30.30,WNW,292,0.0,0.0,64,0.00,,,0.00,WUHU21636XXSP,2013-01-14 21:59:00,
2013-01-14 17:04:00,22.6,12.6,30.30,WNW,292,0.6,3.1,65,0.00,,,0.00,WUHU21636XXSP,2013-01-14 22:04:00,
2013-01-14 17:09:00,22.6,12.9,30.30,WNW,292,0.0,3.1,66,0.00,,,0.00,WUHU21636XXSP,2013-01-14 22:09:00,
2013-01-14 17:14:00,21.9,12.2,30.30,WNW,292,0.0,0.6,66,0.00,,,0.00,WUHU21636XXSP,2013-01-14 22:14:00,
2013-01-14 17:19:00,21.7,12.0,30.30,WNW,292,0.0,0.0,66,0.00,,,0.00,WUHU21636XXSP,2013-01-14 22:19:00,
2013-01-14 17:24:00,21.4,11.7,30.30,WNW,292,0.0,0.0,67,0.00,,,0.00,WUHU21636XXSP,2013-01-14 22:24:00,
2013-01-14 17:29:00,20.8,11.5,30.30,WNW,292,0.0,0.0,67,0.00,,,0.00,WUHU21636XXSP,2013-01-14 22:29:00,
2013-01-14 17:34:00,20.7,11.3,30.30,WNW,292,0.0,0.0,67,0.00,,,0.00,WUHU21636XXSP,2013-01-14 22:34:00,
2013-01-14 17:39:00,20.3,11.3,30.30,WNW,292,0.0,0.0,68,0.00,,,0.00,WUHU21636XXSP,2013-01-14 22:39:00,
2013-01-14 17:44:00,20.1,11.1,30.30,WNW,292,0.0,0.0,68,0.00,,,0.00,WUHU21636XXSP,2013-01-14 22:44:00,
2013-01-14 17:49:00,19.8,10.8,30.30,WNW,292,0.0,0.0,68,0.00,,,0.00,WUHU21636XXSP,2013-01-14 22:49:00,
2013-01-14 17:54:00,19.6,10.9,30.30,WNW,292,0.0,0.0,69,0.00,,,0.00,WUHU21636XXSP,2013-01-14 22:54:00,
2013-01-14 17:59:00,19.2,10.6,30.30,WNW,292,0.0,0.0,69,0.00,,,0.00,WUHU21636XXSP,2013-01-14 22:59:00,
2013-01-14 18:04:00,19.0,10.4,30.30,WNW,292,1.1,1.1,69,0.00,,,0.00,WUHU21636XXSP,2013-01-14 23:04:00,
2013-01-14 18:09:00,18.7,10.4,30.29,WNW,292,2.2,2.2,70,0.00,,,0.00,WUHU21636XXSP,2013-01-14 23:09:00,
2013-01-14 18:14:00,18.5,10.2,30.29,WNW,292,3.3,3.3,70,0.00,,,0.00,WUHU21636XXSP,2013-01-14 23:14:00,
2013-01-14 18:19:00,18.3,10.4,30.29,WNW,292,1.7,3.3,71,0.00,,,0.00,WUHU21636XXSP,2013-01-14 23:19:00,
2013-01-14 18:24:00,18.1,10.4,30.29,WNW,292,0.0,3.3,72,0.00,,,0.00,WUHU21636XXSP,2013-01-14 23:24:00,
2013-01-14 18:29:00,18.1,10.4,30.29,WNW,292,0.6,2.2,72,0.00,,,0.00,WUHU21636XXSP,2013-01-14 23:29:00,
2013-01-14 18:34:00,18.1,10.4,30.29,WNW,292,2.0,2.0,73,0.00,,,0.00,WUHU21636XXSP,2013-01-14 23:34:00,
2013-01-14 18:39:00,18.1,10.4,30.29,WNW,292,0.0,2.0,73,0.00,,,0.00,WUHU21636XXSP,2013-01-14 23:39:00,
2013-01-14 18:44:00,18.0,10.9,30.29,WNW,292,0.0,2.0,74,0.00,,,0.00,WUHU21636XXSP,2013-01-14 23:44:00,
2013-01-14 18:49:00,17.8,10.8,30.29,WNW,292,0.0,1.5,75,0.00,,,0.00,WUHU21636XXSP,2013-01-14 23:49:00,
2013-01-14 18:54:00,17.6,10.9,30.29,WNW,292,0.0,0.0,75,0.00,,,0.00,WUHU21636XXSP,2013-01-14 23:54:00,
2013-01-14 18:59:00,17.6,10.9,30.29,WNW,292,0.0,0.0,77,0.00,,,0.00,WUHU21636XXSP,2013-01-14 23:59:00,
2013-01-14 19:04:00,17.8,11.7,30.28,WNW,292,2.9,2.9,77,0.00,,,0.00,WUHU21636XXSP,2013-01-15 00:04:00,
2013-01-14 19:09:00,18.1,12.2,30.29,WNW,292,0.0,2.9,78,0.00,,,0.00,WUHU21636XXSP,2013-01-15 00:09:00,
2013-01-14 19:14:00,18.1,12.2,30.28,WNW,292,0.0,2.9,78,0.00,,,0.00,WUHU21636XXSP,2013-01-15 00:14:00,
2013-01-14 19:19:00,18.1,12.2,30.28,WNW,292,3.8,3.8,78,0.00,,,0.00,WUHU21636XXSP,2013-01-15 00:19:00,
2013-01-14 19:24:00,18.1,12.2,30.29,WNW,292,0.0,3.8,79,0.00,,,0.00,WUHU21636XXSP,2013-01-15 00:24:00,
2013-01-14 19:29:00,18.0,12.4,30.29,WNW,292,0.0,3.8,79,0.00,,,0.00,WUHU21636XXSP,2013-01-15 00:29:00,
2013-01-14 19:34:00,18.1,12.9,30.29,WNW,292,2.2,2.2,80,0.00,,,0.00,WUHU21636XXSP,2013-01-15 00:34:00,
2013-01-14 19:39:00,18.1,12.9,30.28,WNW,292,2.4,2.4,80,0.00,,,0.00,WUHU21636XXSP,2013-01-15 00:39:00,
2013-01-14 19:44:00,18.1,12.9,30.28,WNW,292,0.0,2.9,80,0.00,,,0.00,WUHU21636XXSP,2013-01-15 00:44:00,
2013-01-14 19:49:00,18.0,12.7,30.29,WNW,292,0.0,2.9,80,0.00,,,0.00,WUHU21636XXSP,2013-01-15 00:49:00,
2013-01-14 19:54:00,17.8,12.6,30.28,WNW,292,0.0,0.0,80,0.00,,,0.00,WUHU21636XXSP,2013-01-15 00:54:00,
2013-01-14 19:59:00,17.8,12.6,30.29,WNW,292,1.5,2.2,81,0.00,,,0.00,WUHU21636XXSP,2013-01-15 00:59:00,
2013-01-14 20:04:00,17.8,12.7,30.28,WNW,292,0.0,2.2,81,0.00,,,0.00,WUHU21636XXSP,2013-01-15 01:04:00,
2013-01-14 20:09:00,17.4,12.4,30.28,WNW,292,0.0,1.5,81,0.00,,,0.00,WUHU21636XXSP,2013-01-15 01:09:00,
2013-01-14 20:14:00,17.6,12.6,30.28,WNW,292,0.0,0.0,81,0.00,,,0.00,WUHU21636XXSP,2013-01-15 01:14:00,
2013-01-14 20:19:00,17.8,13.1,30.28,WNW,292,0.0,0.0,82,0.00,,,0.00,WUHU21636XXSP,2013-01-15 01:19:00,
2013-01-14 20:24:00,18.0,13.3,30.27,WNW,292,0.0,0.8,82,0.00,,,0.00,WUHU21636XXSP,2013-01-15 01:24:00,
2013-01-14 20:29:00,18.0,13.3,30.27,WNW,292,0.4,2.0,81,0.00,,,0.00,WUHU21636XXSP,2013-01-15 01:29:00,
2013-01-14 20:34:00,18.1,13.1,30.27,WNW,292,0.0,2.0,81,0.00,,,0.00,WUHU21636XXSP,2013-01-15 01:34:00,
2013-01-14 20:39:00,18.1,13.1,30.27,WNW,292,0.0,0.8,81,0.00,,,0.00,WUHU21636XXSP,2013-01-15 01:39:00,
2013-01-14 20:44:00,18.1,13.1,30.27,WNW,292,0.0,1.7,81,0.00,,,0.00,WUHU21636XXSP,2013-01-15 01:44:00,
2013-01-14 20:49:00,18.1,13.1,30.27,WNW,292,1.7,1.7,81,0.00,,,0.00,WUHU21636XXSP,2013-01-15 01:49:00,
2013-01-14 20:54:00,18.3,13.3,30.27,WNW,292,0.0,2.0,81,0.00,,,0.00,WUHU21636XXSP,2013-01-15 01:54:00,
2013-01-14 20:59:00,18.5,13.5,30.27,WNW,292,0.0,2.0,81,0.00,,,0.00,WUHU21636XXSP,2013-01-15 01:59:00,
2013-01-14 21:04:00,18.7,13.5,30.27,WNW,292,1.7,1.7,80,0.00,,,0.00,WUHU21636XXSP,2013-01-15 02:04:00,
2013-01-14 21:09:00,18.7,13.5,30.27,WNW,292,0.0,2.6,80,0.00,,,0.00,WUHU21636XXSP,2013-01-15 02:09:00,
2013-01-14 21:14:00,18.7,13.5,30.27,WNW,292,0.0,4.6,80,0.00,,,0.00,WUHU21636XXSP,2013-01-15 02:14:00,
2013-01-14 21:19:00,19.0,13.8,30.27,WNW,292,0.0,4.6,80,0.00,,,0.00,WUHU21636XXSP,2013-01-15 02:19:00,
2013-01-14 21:24:00,19.0,13.8,30.27,WNW,292,4.6,4.6,80,0.00,,,0.00,WUHU21636XXSP,2013-01-15 02:24:00,
2013-01-14 21:29:00,19.0,13.5,30.27,WNW,292,2.0,4.6,79,0.00,,,0.00,WUHU21636XXSP,2013-01-15 02:29:00,
2013-01-14 21:34:00,19.0,13.5,30.27,WNW,292,0.0,4.6,79,0.00,,,0.00,WUHU21636XXSP,2013-01-15 02:34:00,
2013-01-14 21:39:00,19.2,13.6,30.27,WNW,292,2.6,3.5,79,0.00,,,0.00,WUHU21636XXSP,2013-01-15 02:39:00,
2013-01-14 21:44:00,19.2,13.6,30.26,WNW,292,0.2,9.1,79,0.00,,,0.00,WUHU21636XXSP,2013-01-15 02:44:00,
2013-01-14 21:49:00,19.6,14.0,30.27,WNW,292,3.1,9.1,79,0.00,,,0.00,WUHU21636XXSP,2013-01-15 02:49:00,
2013-01-14 21:54:00,19.6,14.0,30.27,WNW,292,0.0,3.1,79,0.00,,,0.00,WUHU21636XXSP,2013-01-15 02:54:00,
2013-01-14 21:59:00,19.8,14.2,30.26,WNW,292,0.0,3.1,79,0.00,,,0.00,WUHU21636XXSP,2013-01-15 02:59:00,
2013-01-14 22:04:00,19.9,14.7,30.26,WNW,292,0.0,6.7,79,0.00,,,0.00,WUHU21636XXSP,2013-01-15 03:04:00,
2013-01-14 22:09:00,20.1,14.5,30.26,WNW,292,3.1,6.7,79,0.00,,,0.00,WUHU21636XXSP,2013-01-15 03:09:00,
2013-01-14 22:14:00,20.1,14.9,30.26,WNW,292,0.0,6.2,80,0.00,,,0.00,WUHU21636XXSP,2013-01-15 03:14:00,
2013-01-14 22:19:00,20.3,15.1,30.26,WNW,292,0.0,6.2,80,0.00,,,0.00,WUHU21636XXSP,2013-01-15 03:19:00,
2013-01-14 22:24:00,20.3,15.1,30.26,WNW,292,1.1,2.9,80,0.00,,,0.00,WUHU21636XXSP,2013-01-15 03:24:00,
2013-01-14 22:29:00,20.5,15.3,30.26,WNW,292,3.5,3.5,80,0.00,,,0.00,WUHU21636XXSP,2013-01-15 03:29:00,
2013-01-14 22:34:00,20.5,15.3,30.26,WNW,292,3.1,3.5,80,0.00,,,0.00,WUHU21636XXSP,2013-01-15 03:34:00,
2013-01-14 22:39:00,20.5,15.3,30.25,WNW,292,0.8,3.5,80,0.00,,,0.00,WUHU21636XXSP,2013-01-15 03:39:00,
2013-01-14 22:44:00,20.5,15.3,30.26,WNW,292,4.2,9.8,80,0.00,,,0.00,WUHU21636XXSP,2013-01-15 03:44:00,
2013-01-14 22:49:00,20.5,15.3,30.26,WNW,292,2.0,25.5,80,0.00,,,0.00,WUHU21636XXSP,2013-01-15 03:49:00,
2013-01-14 22:54:00,20.5,15.3,30.26,WNW,292,0.0,25.5,80,0.00,,,0.00,WUHU21636XXSP,2013-01-15 03:54:00,
2013-01-14 22:59:00,20.5,15.3,30.26,WNW,292,0.0,2.0,81,0.00,,,0.00,WUHU21636XXSP,2013-01-15 03:59:00,
2013-01-14 23:04:00,20.5,15.3,30.26,WNW,292,1.5,1.5,81,0.00,,,0.00,WUHU21636XXSP,2013-01-15 04:04:00,
2013-01-14 23:09:00,20.7,15.4,30.26,WNW,292,3.8,3.8,80,0.00,,,0.00,WUHU21636XXSP,2013-01-15 04:09:00,
2013-01-14 23:14:00,20.8,15.6,30.26,WNW,292,0.0,3.8,80,0.00,,,0.00,WUHU21636XXSP,2013-01-15 04:14:00,
2013-01-14 23:19:00,21.0,15.1,30.26,WNW,292,1.5,11.8,78,0.00,,,0.00,WUHU21636XXSP,2013-01-15 04:19:00,
2013-01-14 23:24:00,21.6,15.1,30.26,WNW,292,4.0,11.8,76,0.00,,,0.00,WUHU21636XXSP,2013-01-15 04:24:00,
2013-01-14 23:29:00,21.9,14.7,30.27,WNW,292,5.8,15.8,74,0.00,,,0.00,WUHU21636XXSP,2013-01-15 04:29:00,
2013-01-14 23:34:00,21.9,14.5,30.26,WNW,292,2.6,18.5,73,0.00,,,0.00,WUHU21636XXSP,2013-01-15 04:34:00,
2013-01-14 23:39:00,21.9,14.5,30.27,WNW,292,4.4,19.9,73,0.00,,,0.00,WUHU21636XXSP,2013-01-15 04:39:00,
2013-01-14 23:44:00,22.1,14.7,30.27,WNW,292,1.3,19.9,73,0.00,,,0.00,WUHU21636XXSP,2013-01-15 04:44:00,
2013-01-14 23:49:00,22.1,14.7,30.27,WNW,292,9.6,14.9,73,0.00,,,0.00,WUHU21636XXSP,2013-01-15 04:49:00,
2013-01-14 23:54:00,22.1,14.7,30.27,WNW,292,3.8,14.7,73,0.00,,,0.00,WUHU21636XXSP,2013-01-15 04:54:00,
2013-01-14 23:59:00,22.1,14.7,30.27,WNW,292,3.8,14.7,73,0.00,,,0.00,WUHU21636XXSP,2013-01-15 04:59:00,